Flag Weather past 2 weeks in Leuven, Belgium

Now
55 °F

Clear.


Feels Like: 53 °F
Forecast: 53 / 65 °F
Wind: 8 mph from South

Location: Brussels National Airport

Current Time: Oct 31, 2014 at 12:17:45 AM

Latest Report: Oct 30, 2014 at 11:50 PM


Visibility: 10 mi

Pressure: 30.18 "Hg

Humidity: 88%

Dew point: 52 °F

Location of LeuvenLocation

Historic Weather in Leuven — Graph

°F

Leuven temperature yesterday

Maximum temperature yesterday: 63 °F (at 2:50 PM)
Minimum temperature yesterday: 52 °F (at 4:50 AM)
Average temperature yesterday: 56 °F

Past Weeks' High & Low Weather Summary

 TemperatureHumidityPressure
High73 °F (Oct 18, 2:20 PM)94% (Oct 15, 11:50 PM)30.27 "Hg (Oct 15, 11:50 PM)
Low45 °F (Oct 28, 6:20 AM)57% (Oct 18, 5:20 PM)29.56 "Hg (Oct 21, 1:20 PM)
Average55 °F82%30.04 "Hg
* Reported Oct 15 11:20 PM — Oct 30 10:50 PM, Leuven, Weather by CustomWeather, © 2014

Note: Actual official high and low records may vary slightly from our data, if they occured in-between our weather recording intervals... More about our weather records

Advertising

Leuven weather history for previous 24 hours

 ConditionsComfort  
Time TempWeatherWind HumidityBarometerVisibility
10:50 PM
Oct 30
55 °FClear.9 mph88%30.18 "Hg10 mi
10:20 PM57 °FClear.9 mph88%30.18 "Hg10 mi
9:50 PM55 °FClear.7 mph88%30.18 "Hg10 mi
9:20 PM55 °FClear.7 mph88%30.18 "Hg10 mi
8:50 PM57 °FClear.7 mph88%30.18 "Hg10 mi
8:20 PM57 °FClear.6 mph88%30.18 "Hg10 mi
7:50 PM59 °FClear.7 mph82%30.18 "Hg10 mi
7:20 PM59 °FPassing clouds.6 mph82%30.18 "HgN/A
6:50 PM59 °FClear.7 mph82%30.18 "Hg10 mi
6:20 PM59 °FClear.6 mph82%30.18 "Hg10 mi
5:50 PM59 °FClear.5 mph82%30.18 "Hg10 mi
5:20 PM59 °FClear.3 mph82%30.18 "Hg10 mi
4:50 PM61 °FSunny.7 mph83%30.18 "Hg10 mi
4:20 PM63 °FSunny.7 mph77%30.18 "Hg10 mi
3:50 PM63 °FSunny.5 mph83%30.18 "Hg10 mi
3:20 PM63 °FSunny.6 mph83%30.18 "Hg10 mi
2:50 PM63 °FSunny.6 mph77%30.18 "Hg10 mi
2:20 PM61 °FSunny.6 mph83%30.18 "Hg10 mi
1:50 PM61 °FPassing clouds.6 mph83%30.18 "HgN/A
1:20 PM61 °FSunny.6 mph83%30.18 "Hg10 mi
12:50 PM59 °FClear.7 mph82%30.18 "Hg6 mi
12:20 PM59 °FClear.6 mph82%30.18 "Hg5 mi
11:50 AM57 °FClear.5 mph88%30.18 "Hg5 mi
11:20 AM57 °FClear.8 mph88%30.18 "Hg5 mi
10:50 AM55 °FClear.7 mph88%30.18 "Hg5 mi
10:20 AM55 °FClear.7 mph88%30.18 "Hg4 mi
9:50 AM54 °FFog.6 mph94%30.18 "Hg3 mi
9:20 AM54 °FFog.6 mph88%30.18 "Hg3 mi
8:50 AM52 °FFog.6 mph94%30.18 "Hg3 mi
8:20 AM52 °FFog.6 mph88%30.15 "Hg2 mi
7:50 AM52 °FFog.3 mph88%30.15 "Hg2 mi
7:20 AM52 °FFog.2 mph88%30.15 "Hg2 mi
6:50 AM52 °FFog.5 mph88%30.15 "Hg3 mi
6:20 AM52 °FFog.5 mph88%30.15 "Hg2 mi
5:50 AM52 °FFog.3 mph94%30.15 "Hg2 mi
5:20 AM52 °FFog.2 mph94%30.15 "Hg2 mi
4:50 AM52 °FFog.2 mph94%30.15 "Hg2 mi
4:20 AM54 °FFog.3 mph88%30.12 "Hg2 mi
3:50 AM54 °FFog.3 mph88%30.12 "Hg3 mi
3:20 AM54 °FFog.5 mph88%30.12 "Hg3 mi
2:50 AM54 °FFog.5 mph88%30.12 "Hg3 mi
2:20 AM54 °FFog.5 mph88%30.12 "Hg3 mi
1:50 AM54 °FFog.5 mph88%30.12 "Hg2 mi
1:20 AM54 °FFog.3 mph88%30.12 "Hg2 mi
12:50 AM54 °FFog.2 mph88%30.12 "Hg2 mi
12:20 AM54 °FFog.2 mph88%30.12 "Hg2 mi
Weather by CustomWeather, © 2014

See weather overviewHow to use our weather pages